Time,TemperatureF,DewpointF,PressureIn,WindDirection,WindDirectionDegrees,WindSpeedMPH,WindSpeedGustMPH,Humidity,HourlyPrecipIn,Conditions,Clouds,dailyrainin,SoftwareType,DateUTC
2013-01-03 00:02:00,21.0,19.0,30.33,West,271,2.0,3.0,93,0.00,,,0.02,,2013-01-03 06:02:00,
2013-01-03 00:12:00,21.0,19.0,30.33,West,271,2.0,3.0,93,0.00,,,0.02,,2013-01-03 06:12:00,
2013-01-03 00:22:00,22.0,21.0,30.34,West,268,1.0,4.0,95,0.00,,,0.02,,2013-01-03 06:22:00,
2013-01-03 00:32:00,22.0,21.0,30.34,West,267,1.0,4.0,94,0.00,,,0.02,,2013-01-03 06:32:00,
2013-01-03 00:42:00,22.0,21.0,30.34,West,267,1.0,4.0,94,0.00,,,0.02,,2013-01-03 06:42:00,
2013-01-03 00:52:00,22.0,21.0,30.35,West,267,2.0,4.0,95,0.00,,,0.02,,2013-01-03 06:52:00,
2013-01-03 01:02:00,21.0,20.0,30.35,West,267,2.0,3.0,95,0.00,,,0.02,,2013-01-03 07:02:00,
2013-01-03 01:12:00,21.0,20.0,30.35,West,267,2.0,3.0,95,0.00,,,0.02,,2013-01-03 07:12:00,
2013-01-03 01:22:00,21.0,20.0,30.34,West,264,0.0,3.0,95,0.00,,,0.02,,2013-01-03 07:22:00,
2013-01-03 01:33:00,21.0,20.0,30.35,West,278,1.0,4.0,95,0.00,,,0.02,,2013-01-03 07:33:00,
2013-01-03 01:42:00,21.0,20.0,30.35,West,278,1.0,4.0,95,0.00,,,0.02,,2013-01-03 07:42:00,
2013-01-03 01:52:00,21.0,20.0,30.35,West,278,1.0,3.0,95,0.00,,,0.02,,2013-01-03 07:52:00,
2013-01-03 02:02:00,20.0,19.0,30.35,West,278,2.0,5.0,94,0.00,,,0.02,,2013-01-03 08:02:00,
2013-01-03 02:12:00,20.0,19.0,30.35,West,278,2.0,5.0,94,0.00,,,0.02,,2013-01-03 08:12:00,
2013-01-03 02:22:00,20.0,19.0,30.35,West,278,0.0,1.0,95,0.00,,,0.02,,2013-01-03 08:22:00,
2013-01-03 02:32:00,20.0,19.0,30.36,West,278,2.0,4.0,95,0.00,,,0.02,,2013-01-03 08:32:00,
2013-01-03 02:42:00,20.0,19.0,30.36,West,278,2.0,4.0,95,0.00,,,0.02,,2013-01-03 08:42:00,
2013-01-03 02:52:00,19.0,18.0,30.37,West,275,3.0,5.0,94,0.00,,,0.02,,2013-01-03 08:52:00,
2013-01-03 03:02:00,19.0,18.0,30.37,West,271,3.0,5.0,94,0.00,,,0.02,,2013-01-03 09:02:00,
2013-01-03 03:12:00,19.0,18.0,30.37,West,271,3.0,5.0,94,0.00,,,0.02,,2013-01-03 09:12:00,
2013-01-03 03:22:00,19.0,18.0,30.37,West,271,3.0,6.0,94,0.00,,,0.02,,2013-01-03 09:22:00,
2013-01-03 03:33:00,18.0,17.0,30.37,West,268,3.0,5.0,94,0.00,,,0.02,,2013-01-03 09:33:00,
2013-01-03 03:43:00,18.0,17.0,30.37,West,268,3.0,5.0,94,0.00,,,0.02,,2013-01-03 09:43:00,
2013-01-03 03:52:00,18.0,17.0,30.38,West,266,4.0,6.0,94,0.00,,,0.02,,2013-01-03 09:52:00,
2013-01-03 04:02:00,18.0,17.0,30.38,West,266,4.0,6.0,94,0.00,,,0.02,,2013-01-03 10:02:00,
2013-01-03 04:12:00,18.0,17.0,30.38,West,266,4.0,6.0,94,0.00,,,0.02,,2013-01-03 10:12:00,
2013-01-03 04:22:00,17.0,16.0,30.37,WSW,257,4.0,7.0,94,0.00,,,0.02,,2013-01-03 10:22:00,
2013-01-03 04:33:00,17.0,15.0,30.37,SW,225,2.0,6.0,93,0.00,,,0.02,,2013-01-03 10:33:00,
2013-01-03 04:42:00,17.0,15.0,30.37,SW,225,2.0,6.0,93,0.00,,,0.02,,2013-01-03 10:42:00,
2013-01-03 04:52:00,18.0,17.0,30.38,SSW,204,0.0,3.0,94,0.00,,,0.02,,2013-01-03 10:52:00,
2013-01-03 05:02:00,19.0,18.0,30.38,WSW,241,0.0,2.0,95,0.00,,,0.02,,2013-01-03 11:02:00,
2013-01-03 05:12:00,19.0,18.0,30.38,WSW,241,0.0,2.0,95,0.00,,,0.02,,2013-01-03 11:12:00,
2013-01-03 05:22:00,19.0,18.0,30.38,WSW,248,2.0,4.0,94,0.00,,,0.02,,2013-01-03 11:22:00,
2013-01-03 05:33:00,19.0,17.0,30.39,SW,227,0.0,6.0,93,0.00,,,0.02,,2013-01-03 11:33:00,
2013-01-03 05:42:00,19.0,17.0,30.39,SW,227,0.0,6.0,93,0.00,,,0.02,,2013-01-03 11:42:00,
2013-01-03 05:53:00,19.0,17.0,30.39,SW,227,0.0,6.0,93,0.00,,,0.02,,2013-01-03 11:53:00,
2013-01-03 06:03:00,20.0,19.0,30.40,SW,230,2.0,5.0,94,0.00,,,0.02,,2013-01-03 12:03:00,
2013-01-03 06:12:00,20.0,19.0,30.40,SW,230,2.0,5.0,94,0.00,,,0.02,,2013-01-03 12:12:00,
2013-01-03 06:22:00,22.0,21.0,30.40,NE,38,0.0,3.0,95,0.00,,,0.02,,2013-01-03 12:22:00,
2013-01-03 06:32:00,24.0,23.0,30.41,SSW,213,0.0,2.0,94,0.00,,,0.02,,2013-01-03 12:32:00,
2013-01-03 06:42:00,24.0,23.0,30.41,SSW,213,0.0,2.0,94,0.00,,,0.02,,2013-01-03 12:42:00,
2013-01-03 06:52:00,24.0,23.0,30.41,NE,38,0.0,4.0,94,0.00,,,0.02,,2013-01-03 12:52:00,
2013-01-03 07:02:00,25.0,23.0,30.42,NE,39,2.0,5.0,92,0.00,,,0.02,,2013-01-03 13:02:00,
2013-01-03 07:12:00,25.0,23.0,30.42,NE,39,2.0,5.0,92,0.00,,,0.02,,2013-01-03 13:12:00,
2013-01-03 07:22:00,25.0,22.0,30.42,NE,40,2.0,5.0,90,0.00,,,0.02,,2013-01-03 13:22:00,
2013-01-03 07:33:00,25.0,22.0,30.43,NE,41,0.0,5.0,90,0.00,,,0.02,,2013-01-03 13:33:00,
2013-01-03 07:42:00,25.0,22.0,30.43,NE,41,0.0,5.0,90,0.00,,,0.02,,2013-01-03 13:42:00,
2013-01-03 07:52:00,25.0,22.0,30.43,NE,51,0.0,1.0,90,0.00,,,0.02,,2013-01-03 13:52:00,
2013-01-03 08:03:00,24.0,22.0,30.44,East,101,0.0,1.0,90,0.00,,,0.02,,2013-01-03 14:03:00,
2013-01-03 08:12:00,24.0,22.0,30.44,East,101,0.0,1.0,90,0.00,,,0.02,,2013-01-03 14:12:00,
2013-01-03 08:22:00,24.0,22.0,30.44,West,267,2.0,5.0,90,0.00,,,0.02,,2013-01-03 14:22:00,
2013-01-03 08:33:00,24.0,21.0,30.45,WSW,254,2.0,4.0,89,0.00,,,0.02,,2013-01-03 14:33:00,
2013-01-03 08:42:00,24.0,21.0,30.45,WSW,254,2.0,4.0,89,0.00,,,0.02,,2013-01-03 14:42:00,
2013-01-03 08:53:00,24.0,22.0,30.45,West,263,0.0,3.0,90,0.00,,,0.02,,2013-01-03 14:53:00,
2013-01-03 09:03:00,24.0,22.0,30.46,WSW,247,2.0,6.0,90,0.00,,,0.02,,2013-01-03 15:03:00,
2013-01-03 09:12:00,24.0,22.0,30.46,WSW,247,2.0,6.0,90,0.00,,,0.02,,2013-01-03 15:12:00,
2013-01-03 09:22:00,24.0,21.0,30.46,SSE,161,0.0,2.0,87,0.00,,,0.02,,2013-01-03 15:22:00,
2013-01-03 09:33:00,23.0,19.0,30.47,SE,140,0.0,1.0,86,0.00,,,0.02,,2013-01-03 15:33:00,
2013-01-03 09:43:00,23.0,19.0,30.47,SE,140,0.0,1.0,86,0.00,,,0.02,,2013-01-03 15:43:00,
2013-01-03 09:53:00,24.0,21.0,30.47,South,178,0.0,3.0,87,0.00,,,0.02,,2013-01-03 15:53:00,
2013-01-03 10:03:00,25.0,21.0,30.48,West,266,1.0,5.0,84,0.00,,,0.02,,2013-01-03 16:03:00,
2013-01-03 10:12:00,25.0,21.0,30.48,West,266,1.0,5.0,84,0.00,,,0.02,,2013-01-03 16:12:00,
2013-01-03 10:22:00,25.0,21.0,30.49,West,259,2.0,4.0,83,0.00,,,0.02,,2013-01-03 16:22:00,
2013-01-03 10:33:00,26.0,21.0,30.49,West,265,3.0,5.0,82,0.00,,,0.02,,2013-01-03 16:33:00,
2013-01-03 10:43:00,26.0,21.0,30.49,West,265,3.0,5.0,82,0.00,,,0.02,,2013-01-03 16:43:00,
2013-01-03 10:52:00,27.0,22.0,30.50,SSE,161,0.0,7.0,82,0.00,,,0.02,,2013-01-03 16:52:00,
2013-01-03 11:03:00,28.0,23.0,30.50,SE,144,0.0,2.0,80,0.00,,,0.02,,2013-01-03 17:03:00,
2013-01-03 11:12:00,28.0,23.0,30.50,SE,144,0.0,2.0,80,0.00,,,0.02,,2013-01-03 17:12:00,
2013-01-03 11:23:00,28.0,22.0,30.50,South,191,0.0,3.0,79,0.00,,,0.02,,2013-01-03 17:23:00,
2013-01-03 11:33:00,30.0,25.0,30.50,NNE,24,1.0,4.0,80,0.00,,,0.02,,2013-01-03 17:33:00,
2013-01-03 11:43:00,30.0,25.0,30.50,NNE,24,1.0,4.0,80,0.00,,,0.02,,2013-01-03 17:43:00,
2013-01-03 11:52:00,30.0,24.0,30.49,NE,53,4.0,7.0,79,0.00,,,0.02,,2013-01-03 17:52:00,
2013-01-03 12:03:00,29.0,24.0,30.48,NNE,27,4.0,8.0,81,0.00,,,0.02,,2013-01-03 18:03:00,
2013-01-03 12:13:00,29.0,24.0,30.48,NNE,27,4.0,8.0,81,0.00,,,0.02,,2013-01-03 18:13:00,
2013-01-03 12:22:00,29.0,24.0,30.47,NE,38,3.0,6.0,82,0.00,,,0.02,,2013-01-03 18:22:00,
2013-01-03 12:33:00,29.0,24.0,30.47,NE,37,1.0,5.0,82,0.00,,,0.02,,2013-01-03 18:33:00,
2013-01-03 12:42:00,29.0,24.0,30.47,NE,37,1.0,5.0,82,0.00,,,0.02,,2013-01-03 18:42:00,
2013-01-03 12:53:00,29.0,24.0,30.46,NE,34,1.0,5.0,82,0.00,,,0.02,,2013-01-03 18:53:00,
2013-01-03 13:03:00,29.0,24.0,30.46,NE,34,1.0,5.0,82,0.00,,,0.02,,2013-01-03 19:03:00,
2013-01-03 13:12:00,29.0,24.0,30.46,NE,34,1.0,5.0,82,0.00,,,0.02,,2013-01-03 19:12:00,
2013-01-03 13:55:00,29.0,25.0,30.44,WSW,243,1.0,5.0,83,0.00,,,0.02,,2013-01-03 19:55:00,
2013-01-03 14:03:00,30.0,25.0,30.43,South,175,0.0,4.0,83,0.00,,,0.02,,2013-01-03 20:03:00,
2013-01-03 14:12:00,30.0,25.0,30.43,South,175,0.0,4.0,83,0.00,,,0.02,,2013-01-03 20:12:00,
2013-01-03 14:22:00,30.0,26.0,30.43,SE,136,0.0,3.0,84,0.00,,,0.02,,2013-01-03 20:22:00,
2013-01-03 14:33:00,30.0,25.0,30.43,East,82,0.0,2.0,83,0.00,,,0.02,,2013-01-03 20:33:00,
2013-01-03 14:42:00,30.0,25.0,30.43,East,82,0.0,2.0,83,0.00,,,0.02,,2013-01-03 20:42:00,
2013-01-03 14:53:00,30.0,25.0,30.43,NNE,32,0.0,2.0,83,0.00,,,0.02,,2013-01-03 20:53:00,
2013-01-03 15:02:00,31.0,26.0,30.43,NE,49,0.0,3.0,83,0.00,,,0.02,,2013-01-03 21:02:00,
2013-01-03 15:12:00,31.0,26.0,30.43,NE,49,0.0,3.0,83,0.00,,,0.02,,2013-01-03 21:12:00,
2013-01-03 15:22:00,31.0,26.0,30.43,NE,46,0.0,3.0,82,0.01,,,0.03,,2013-01-03 21:22:00,
2013-01-03 15:36:00,30.0,25.0,30.43,NE,43,1.0,4.0,82,0.01,,,0.03,,2013-01-03 21:36:00,
2013-01-03 15:48:00,30.0,25.0,30.43,NE,43,1.0,4.0,82,0.01,,,0.03,,2013-01-03 21:48:00,
2013-01-03 16:03:00,30.0,25.0,30.43,NE,44,0.0,2.0,82,0.01,,,0.03,,2013-01-03 22:03:00,
2013-01-03 16:12:00,30.0,25.0,30.43,NE,44,0.0,2.0,82,0.01,,,0.03,,2013-01-03 22:12:00,
2013-01-03 16:22:00,31.0,26.0,30.43,NE,44,0.0,0.0,80,0.00,,,0.03,,2013-01-03 22:22:00,
2013-01-03 16:33:00,31.0,25.0,30.43,NE,45,0.0,0.0,78,0.00,,,0.02,,2013-01-03 22:33:00,
2013-01-03 16:42:00,31.0,25.0,30.43,NE,45,0.0,0.0,78,0.00,,,0.02,,2013-01-03 22:42:00,
2013-01-03 16:52:00,31.0,24.0,30.43,NE,44,0.0,0.0,75,0.00,,,0.02,,2013-01-03 22:52:00,
2013-01-03 17:02:00,31.0,24.0,30.43,NE,44,0.0,0.0,76,0.00,,,0.02,,2013-01-03 23:02:00,
2013-01-03 17:12:00,31.0,24.0,30.43,NE,44,0.0,0.0,76,0.00,,,0.02,,2013-01-03 23:12:00,
2013-01-03 17:22:00,30.0,24.0,30.44,NE,44,0.0,0.0,77,0.00,,,0.02,,2013-01-03 23:22:00,
2013-01-03 17:33:00,29.0,23.0,30.44,NE,44,0.0,0.0,79,0.00,,,0.01,,2013-01-03 23:33:00,
2013-01-03 17:42:00,29.0,23.0,30.44,NE,44,0.0,0.0,79,0.00,,,0.01,,2013-01-03 23:42:00,
2013-01-03 17:52:00,26.0,22.0,30.44,NNW,340,0.0,2.0,83,0.00,,,0.01,,2013-01-03 23:52:00,
2013-01-03 18:03:00,24.0,21.0,30.45,NNW,327,1.0,2.0,87,0.00,,,0.01,,2013-01-04 00:03:00,
2013-01-03 18:12:00,24.0,21.0,30.45,NNW,327,1.0,2.0,87,0.00,,,0.01,,2013-01-04 00:12:00,
2013-01-03 18:22:00,24.0,21.0,30.45,West,274,1.0,3.0,88,0.00,,,0.01,,2013-01-04 00:22:00,
2013-01-03 18:32:00,23.0,21.0,30.45,West,263,2.0,4.0,90,0.00,,,0.01,,2013-01-04 00:32:00,
2013-01-03 18:42:00,23.0,21.0,30.45,West,263,2.0,4.0,90,0.00,,,0.01,,2013-01-04 00:42:00,
2013-01-03 18:52:00,23.0,21.0,30.45,West,264,0.0,1.0,90,0.00,,,0.01,,2013-01-04 00:52:00,
2013-01-03 19:02:00,22.0,20.0,30.45,West,264,0.0,1.0,91,0.00,,,0.01,,2013-01-04 01:02:00,
2013-01-03 19:12:00,22.0,20.0,30.45,West,264,0.0,1.0,91,0.00,,,0.01,,2013-01-04 01:12:00,
2013-01-03 19:22:00,22.0,20.0,30.45,West,264,0.0,1.0,92,0.00,,,0.01,,2013-01-04 01:22:00,
2013-01-03 19:32:00,22.0,20.0,30.45,West,264,0.0,1.0,92,0.00,,,0.01,,2013-01-04 01:32:00,
2013-01-03 19:42:00,22.0,20.0,30.45,West,264,0.0,1.0,92,0.00,,,0.01,,2013-01-04 01:42:00,
2013-01-03 19:52:00,23.0,21.0,30.45,West,270,0.0,2.0,92,0.00,,,0.01,,2013-01-04 01:52:00,
2013-01-03 20:02:00,21.0,19.0,30.45,West,267,0.0,2.0,90,0.00,,,0.01,,2013-01-04 02:02:00,
2013-01-03 20:12:00,21.0,19.0,30.45,West,267,0.0,2.0,90,0.00,,,0.01,,2013-01-04 02:12:00,
2013-01-03 20:22:00,21.0,19.0,30.45,West,276,1.0,3.0,92,0.00,,,0.01,,2013-01-04 02:22:00,
2013-01-03 20:32:00,21.0,19.0,30.45,West,276,1.0,3.0,92,0.00,,,0.01,,2013-01-04 02:32:00,
2013-01-03 20:42:00,21.0,19.0,30.45,West,276,1.0,3.0,92,0.00,,,0.01,,2013-01-04 02:42:00,
2013-01-03 20:52:00,20.0,18.0,30.44,West,268,1.0,4.0,93,0.00,,,0.01,,2013-01-04 02:52:00,
2013-01-03 21:02:00,19.0,17.0,30.45,West,271,2.0,5.0,92,0.00,,,0.01,,2013-01-04 03:02:00,
2013-01-03 21:12:00,19.0,17.0,30.45,West,271,2.0,5.0,92,0.00,,,0.01,,2013-01-04 03:12:00,
2013-01-03 21:22:00,18.0,17.0,30.44,West,269,2.0,4.0,94,0.00,,,0.01,,2013-01-04 03:22:00,
2013-01-03 21:32:00,18.0,16.0,30.44,West,259,2.0,4.0,93,0.00,,,0.01,,2013-01-04 03:32:00,
2013-01-03 21:42:00,18.0,16.0,30.44,West,259,2.0,4.0,93,0.00,,,0.01,,2013-01-04 03:42:00,
2013-01-03 21:52:00,17.0,15.0,30.44,West,281,1.0,4.0,93,0.00,,,0.01,,2013-01-04 03:52:00,
2013-01-03 22:02:00,17.0,15.0,30.43,WNW,284,1.0,3.0,93,0.00,,,0.01,,2013-01-04 04:02:00,
2013-01-03 22:12:00,17.0,15.0,30.43,WNW,284,1.0,3.0,93,0.00,,,0.01,,2013-01-04 04:12:00,
2013-01-03 22:22:00,17.0,15.0,30.44,West,273,3.0,5.0,93,0.00,,,0.01,,2013-01-04 04:22:00,
2013-01-03 22:32:00,16.0,14.0,30.44,West,277,3.0,5.0,92,0.00,,,0.01,,2013-01-04 04:32:00,
2013-01-03 22:42:00,16.0,14.0,30.44,West,277,3.0,5.0,92,0.00,,,0.01,,2013-01-04 04:42:00,
2013-01-03 22:52:00,15.0,13.0,30.44,WNW,284,3.0,5.0,92,0.00,,,0.01,,2013-01-04 04:52:00,
2013-01-03 23:03:00,14.0,12.0,30.44,West,270,3.0,5.0,92,0.00,,,0.01,,2013-01-04 05:03:00,
2013-01-03 23:12:00,14.0,12.0,30.44,West,270,3.0,5.0,92,0.00,,,0.01,,2013-01-04 05:12:00,
2013-01-03 23:22:00,14.0,12.0,30.44,West,274,2.0,4.0,92,0.00,,,0.01,,2013-01-04 05:22:00,
2013-01-03 23:33:00,14.0,12.0,30.44,West,274,2.0,4.0,92,0.00,,,0.01,,2013-01-04 05:33:00,
2013-01-03 23:42:00,14.0,12.0,30.44,West,274,2.0,4.0,92,0.00,,,0.01,,2013-01-04 05:42:00,
2013-01-03 23:52:00,15.0,13.0,30.43,West,278,3.0,5.0,92,0.00,,,0.01,,2013-01-04 05:52:00,